This demonstration page uses our WeatherBlox Daily Observations layout. Learn more.

Left ArrowRight Arrow

44.8408, -93.29828

Hourly Observations for September 7, 2018

Temp ( °F °C ) Dew Point ( °F °C ) Humidity (%) Winds ( mph kmh ) Pressure ( in mb ) Visibility ( mi km ) Precip ( " mm )
12:53 am 00:53 Mostly Cloudy 59 15 51 10.6 75 75 Calm 30.34 1027 10 16 0.00 0.00
1:53 am 01:53 Mostly Cloudy 59 15 52 11.1 78 78 N 5 7 30.35 1028 10 16 0.00 0.00
2:53 am 02:53 Mostly Cloudy 59 15 52 11.1 78 78 Calm 30.34 1027 10 16 0.00 0.00
3:53 am 03:53 Mostly Cloudy 59 15 52 11.1 78 78 Calm 30.33 1027 10 16 0.00 0.00
4:53 am 04:53 Mostly Cloudy 57 13.9 52 11.1 83 83 Calm 30.31 1027 10 16 0.00 0.00
5:53 am 05:53 Mostly Cloudy 58 14.4 52 11.1 81 81 VRB 3 6 30.31 1026 10 16 0.00 0.00
6:53 am 06:53 Mostly Cloudy 56 13.3 51 10.6 84 84 Calm 30.32 1027 10 16 0.00 0.00
7:53 am 07:53 Mostly Cloudy 58 14.4 52 11.1 81 81 NNE 3 6 30.34 1027 10 16 0.00 0.00
8:53 am 08:53 Mostly Cloudy 61 16.1 53 11.7 75 75 NE 5 7 30.35 1028 10 16 0.00 0.00
9:53 am 09:53 Mostly Cloudy 64 17.8 53 11.7 68 68 E 5 7 30.35 1028 10 16 0.00 0.00
10:53 am 10:53 Mostly Cloudy 68 20 53 11.7 59 59 E 8 13 30.35 1028 10 16 0.00 0.00
11:53 am 11:53 Partly Cloudy 70 21.1 51 10.6 51 51 E 7 11 30.35 1028 10 16 0.00 0.00
12:53 pm 12:53 Partly Cloudy 73 22.8 52 11.1 48 48 ENE 8 13 30.33 1027 10 16 0.00 0.00
1:53 pm 13:53 Partly Cloudy 74 23.3 51 10.6 45 45 ESE 10 17 30.31 1026 10 16 0.00 0.00
2:53 pm 14:53 Mostly Sunny 75 23.9 51 10.6 43 43 ENE 10 17 30.29 1026 10 16 0.00 0.00
3:53 pm 15:53 Partly Cloudy 75 23.9 52 11.1 45 45 E 6 9 30.28 1025 10 16 0.00 0.00
4:53 pm 16:53 Mostly Sunny 75 23.9 50 10 41 41 E 10 17 30.27 1025 10 16 0.00 0.00
5:53 pm 17:53 Mostly Sunny 75 23.9 50 10 41 41 ENE 13 20 30.27 1025 10 16 0.00 0.00
6:53 pm 18:53 Mostly Sunny 73 22.8 50 10 44 44 E 9 15 30.28 1026 10 16 0.00 0.00
7:53 pm 19:53 Mostly Clear 71 21.7 48 8.9 44 44 E 9 15 30.28 1025 10 16 0.00 0.00
8:53 pm 20:53 Mostly Clear 69 20.6 50 10 51 51 E 8 13 30.29 1026 10 16 0.00 0.00
9:53 pm 21:53 Clear 67 19.4 51 10.6 57 57 ENE 5 7 30.29 1026 10 16 0.00 0.00
10:53 pm 22:53 Mostly Clear 66 18.9 52 11.1 61 61 E 6 9 30.30 1026 10 16 0.00 0.00
11:53 pm 23:53 Clear 63 17.2 53 11.7 70 70 ESE 7 11 30.30 1026 10 16 0.00 0.00

Powered by AerisWeather